Weather History for Altus AFB, OK

Change the Weather History Date:

Friday, April 11, 2014

  Actual Average Record
Temperature  
Mean Temperature 68 °F -  
Max Temperature 84 °F 70 °F 84 °F (1998)
Min Temperature 52 °F 45 °F 31 °F (2013)
Cooling Degree Days 3    
Growing Degree Days 18 (Base 50)    
Moisture  
Dew Point 48 °F    
Average Humidity 53    
Maximum Humidity 84    
Minimum Humidity 33    
Precipitation  
Precipitation 0.00 in - - ()
Sea Level Pressure  
Sea Level Pressure 29.87 in    
Wind  
Wind Speed 12 mph (ENE)    
Max Wind Speed 18 mph    
Max Gust Speed -    
Visibility 10 miles    
Events      
Averages and records for this station are not official NWS values.
T = Trace of Precipitation, MM = Missing Value Source: NWS Daily Summary

Daily Weather History Graph

Daily Weather History Graph

Search for Another Location

Airport:

Trip Planner

Search our weather history database for the weather conditions in past years. The results will help you decide how hot, cold, wet, or windy it might be!

Date:

Astronomy

Apr. 11, 2014 Rise Set
Actual Time 7:10 AM CDT 8:06 PM CDT
Civil Twilight 6:44 AM CDT 8:31 PM CDT
Nautical Twilight 6:14 AM CDT 9:02 PM CDT
Astronomical Twilight 5:42 AM CDT 9:33 PM CDT
Moon 4:55 PM CDT (4/11) 4:57 AM CDT (4/11)
Length of Visible Light 13h 47m
Length of Day
12h 55m
Waxing Gibbous, 87% of the Moon is Illuminated
Apr 11
Waxing Gibbous
Apr 15
Full
Apr 22
Last Quarter
Apr 29
New
May 6
First Quarter

Hourly Weather History & Observations

Time (CDT) Temp. Heat Index Dew Point Humidity Pressure Visibility Wind Dir Wind Speed Gust Speed Precip Events Conditions
12:58 AM 57.2 °F - 41.7 °F 56% 29.84 in 10.0 mi NNE 13.8 mph - N/A   Clear
1:58 AM 56.1 °F - 41.7 °F 58% 29.82 in 10.0 mi NE 11.5 mph - N/A   Clear
2:58 AM 55.6 °F - 41.2 °F 58% 29.81 in 10.0 mi NNE 13.8 mph - N/A   Clear
3:58 AM 54.5 °F - 41.5 °F 62% 29.82 in 10.0 mi NNE 13.8 mph - N/A   Clear
4:58 AM 53.2 °F - 41.7 °F 65% 29.84 in 10.0 mi North 9.2 mph - N/A   Clear
5:58 AM 53.4 °F - 42.1 °F 65% 29.87 in 10.0 mi North 12.7 mph - N/A   Clear
6:58 AM 52.2 °F - 41.0 °F 66% 29.88 in 10.0 mi NNE 11.5 mph - N/A   Clear
7:58 AM 53.4 °F - 41.0 °F 63% 29.92 in 10.0 mi NNE 18.4 mph - N/A   Clear
8:58 AM 56.1 °F - 41.5 °F 58% 29.95 in 10.0 mi NE 13.8 mph - N/A   Clear
9:58 AM 60.1 °F - 44.6 °F 57% 29.95 in 10.0 mi NE 12.7 mph - N/A   Clear
10:58 AM 65.1 °F - 48.2 °F 54% 29.96 in 10.0 mi North 11.5 mph - N/A   Clear
11:58 AM 70.3 °F - 51.4 °F 51% 29.96 in 10.0 mi ENE 5.8 mph - N/A   Clear
12:58 PM 75.0 °F - 53.4 °F 47% 29.93 in 10.0 mi East 10.4 mph - N/A   Clear
1:58 PM 79.9 °F - 54.3 °F 41% 29.89 in 10.0 mi East 12.7 mph - N/A   Clear
2:58 PM 82.0 °F 81.4 °F 54.5 °F 39% 29.87 in 10.0 mi ESE 10.4 mph - N/A   Clear
3:58 PM 83.8 °F 82.4 °F 53.6 °F 35% 29.85 in 10.0 mi ESE 9.2 mph - N/A   Clear
4:58 PM 84.0 °F - 52.9 °F 34% 29.82 in 10.0 mi ESE 9.2 mph - N/A   Clear
5:58 PM 83.8 °F - 51.4 °F 33% 29.81 in 10.0 mi East 9.2 mph - N/A   Clear
6:58 PM 82.0 °F - 51.3 °F 34% 29.81 in 10.0 mi ESE 8.1 mph - N/A   Clear
7:58 PM 76.8 °F - 50.9 °F 40% 29.83 in 10.0 mi ESE 8.1 mph - N/A   Clear
8:58 PM 69.6 °F - 50.2 °F 50% 29.84 in 10.0 mi East 6.9 mph - N/A   Clear
9:58 PM 63.3 °F - 50.5 °F 63% 29.85 in 10.0 mi East 9.2 mph - N/A   Clear
10:58 PM 65.7 °F - 54.7 °F 68% 29.85 in 10.0 mi ESE 10.4 mph - N/A   Clear
11:58 PM 63.5 °F - 58.6 °F 84% 29.82 in 10.0 mi ESE 9.2 mph - N/A   Clear